When you browse on this site, cookies collect data to enhance your experience and personalize the content and advertising you see.
Visit our Privacy Policy to learn more. By continuing to use the site, you agree to this use of cookies and data.
  • In Hungary
  • List of Countries
  • For 7 days
  • Water Temperature
  • Weather Map
  • News
  • Weather Widgets
  • user-avatar
    Login

    Hourly Weather Marchtrenk

    Today, 12 December, Thursday

    Time Temperature Precipitation Wind Pressure Humidity
    00:00 -1°C° 0 mm 0 mps 730 mmHg 63%
    01:00 0°C° 0 mm 1 mps 730 mmHg 64%
    02:00 0°C° 0 mm 1 mps 729 mmHg 64%
    03:00 0°C° 0 mm 0 mps 729 mmHg 65%
    04:00 0°C° 0 mm 0 mps 729 mmHg 65%
    05:00 0°C° 0 mm 0 mps 729 mmHg 72%
    06:00 +1°C° 0 mm 1 mps 729 mmHg 78%
    07:00 +1°C° 0 mm 1 mps 729 mmHg 83%
    08:00 +2°C° 0.1 mm 1 mps 729 mmHg 86%
    09:00 +2°C° 0.1 mm 1 mps 729 mmHg 89%
    10:00 +2°C° 0.1 mm 1 mps 728 mmHg 92%
    11:00 +2°C° 0.1 mm 0 mps 728 mmHg 92%
    12:00 +2°C° 0.1 mm 0 mps 728 mmHg 92%
    13:00 +2°C° 0.1 mm 0 mps 728 mmHg 91%
    14:00 +2°C° 0 mm 0 mps 727 mmHg 93%
    15:00 +2°C° 0 mm 0 mps 727 mmHg 95%
    16:00 +1°C° 0 mm 0 mps 726 mmHg 96%
    17:00 +1°C° 0 mm 0 mps 726 mmHg 96%
    18:00 +2°C° 0 mm 1 mps 726 mmHg 96%
    19:00 +2°C° 0 mm 1 mps 726 mmHg 96%
    20:00 +2°C° 0 mm 1 mps 725 mmHg 96%
    21:00 +1°C° 0 mm 1 mps 724 mmHg 96%
    22:00 +1°C° 0 mm 1 mps 724 mmHg 96%
    23:00 +1°C° 0 mm 1 mps 723 mmHg 95%

    Tomorrow, 13 December, Friday

    Time Temperature Precipitation Wind Pressure Humidity
    00:00 +1°C° 0 mm 1 mps 722 mmHg 94%
    01:00 -1°C° 0 mm 2 mps 721 mmHg 93%
    02:00 -1°C° 0 mm 2 mps 720 mmHg 92%
    03:00 -2°C° 0 mm 2 mps 719 mmHg 91%
    04:00 -2°C° 0 mm 2 mps 718 mmHg 91%
    05:00 -2°C° 0 mm 2 mps 717 mmHg 90%
    06:00 -2°C° 0 mm 2 mps 716 mmHg 89%
    07:00 -2°C° 0 mm 2 mps 715 mmHg 88%
    08:00 -1°C° 0 mm 2 mps 714 mmHg 83%
    09:00 -1°C° 0 mm 2 mps 713 mmHg 79%
    10:00 +1°C° 0 mm 2 mps 713 mmHg 75%
    11:00 +2°C° 0 mm 2 mps 712 mmHg 74%
    12:00 +3°C° 0 mm 1 mps 712 mmHg 73%
    13:00 +4°C° 0 mm 1 mps 712 mmHg 72%
    14:00 +3°C° 0 mm 1 mps 713 mmHg 76%
    15:00 +2°C° 0 mm 1 mps 713 mmHg 80%
    16:00 +2°C° 0 mm 1 mps 714 mmHg 84%
    17:00 +2°C° 0 mm 1 mps 715 mmHg 83%
    18:00 +2°C° 0 mm 1 mps 715 mmHg 82%
    19:00 +2°C° 0 mm 1 mps 716 mmHg 82%
    20:00 +1°C° 0 mm 2 mps 717 mmHg 82%
    21:00 +2°C° 0 mm 2 mps 717 mmHg 82%
    22:00 +1°C° 0 mm 3 mps 718 mmHg 82%
    23:00 +1°C° 0.1 mm 3 mps 719 mmHg 82%

    Day after tomorrow, 14 December, Saturday

    Time Temperature Precipitation Wind Pressure Humidity
    00:00 0°C° 0.1 mm 4 mps 720 mmHg 83%
    01:00 0°C° 0.1 mm 5 mps 721 mmHg 83%
    02:00 0°C° 0.2 mm 5 mps 721 mmHg 85%
    03:00 0°C° 0.2 mm 5 mps 722 mmHg 86%
    04:00 0°C° 0.2 mm 5 mps 722 mmHg 88%
    05:00 0°C° 0 mm 4 mps 723 mmHg 86%
    06:00 0°C° 0 mm 3 mps 723 mmHg 84%
    07:00 0°C° 0 mm 3 mps 724 mmHg 83%
    08:00 +2°C° 0 mm 2 mps 724 mmHg 79%
    09:00 +2°C° 0 mm 2 mps 724 mmHg 76%
    10:00 +4°C° 0 mm 1 mps 724 mmHg 73%
    11:00 +4°C° 0.1 mm 1 mps 724 mmHg 74%
    12:00 +5°C° 0.1 mm 1 mps 725 mmHg 74%
    13:00 +5°C° 0.1 mm 1 mps 725 mmHg 75%
    14:00 +4°C° 0.4 mm 2 mps 725 mmHg 80%
    15:00 +4°C° 0.4 mm 2 mps 726 mmHg 84%
    16:00 +4°C° 0.4 mm 2 mps 727 mmHg 88%
    17:00 +3°C° 0 mm 3 mps 727 mmHg 88%
    18:00 +3°C° 0 mm 3 mps 728 mmHg 87%
    19:00 +3°C° 0 mm 3 mps 729 mmHg 87%
    20:00 +4°C° 0 mm 2 mps 729 mmHg 88%
    21:00 +4°C° 0 mm 2 mps 730 mmHg 89%
    22:00 +4°C° 0 mm 1 mps 730 mmHg 90%
    23:00 +5°C° 0.1 mm 1 mps 731 mmHg 91%

    15 December, Sunday

    Time Temperature Precipitation Wind Pressure Humidity
    00:00 +5°C° 0.1 mm 1 mps 731 mmHg 91%
    01:00 +4°C° 0.1 mm 2 mps 731 mmHg 92%
    02:00 +5°C° 0.3 mm 1 mps 731 mmHg 92%
    03:00 +6°C° 0.3 mm 1 mps 731 mmHg 92%
    04:00 +6°C° 0.3 mm 1 mps 731 mmHg 92%
    05:00 +5°C° 0 mm 1 mps 731 mmHg 90%
    06:00 +5°C° 0 mm 1 mps 731 mmHg 89%
    07:00 +5°C° 0 mm 1 mps 731 mmHg 87%
    08:00 +6°C° 0 mm 1 mps 731 mmHg 84%
    09:00 +6°C° 0 mm 1 mps 732 mmHg 82%
    10:00 +7°C° 0 mm 1 mps 732 mmHg 79%
    11:00 +8°C° 0 mm 1 mps 732 mmHg 77%
    12:00 +9°C° 0 mm 1 mps 732 mmHg 75%
    13:00 +9°C° 0 mm 0 mps 732 mmHg 72%
    14:00 +9°C° 0 mm 1 mps 732 mmHg 74%
    15:00 +8°C° 0 mm 1 mps 732 mmHg 76%
    16:00 +7°C° 0 mm 1 mps 733 mmHg 78%
    17:00 +7°C° 0 mm 1 mps 733 mmHg 77%
    18:00 +7°C° 0 mm 1 mps 734 mmHg 76%
    19:00 +7°C° 0 mm 1 mps 734 mmHg 75%
    20:00 +7°C° 0 mm 1 mps 735 mmHg 76%
    21:00 +7°C° 0 mm 1 mps 735 mmHg 76%
    22:00 +6°C° 0 mm 1 mps 735 mmHg 77%
    23:00 +6°C° 0 mm 1 mps 735 mmHg 78%

    16 December, Monday

    Time Temperature Precipitation Wind Pressure Humidity
    00:00 +5°C° 0 mm 1 mps 735 mmHg 78%
    01:00 +5°C° 0 mm 1 mps 735 mmHg 78%
    02:00 +5°C° 0 mm 1 mps 735 mmHg 79%
    03:00 +4°C° 0 mm 1 mps 735 mmHg 80%
    04:00 +4°C° 0 mm 1 mps 735 mmHg 81%
    05:00 +4°C° 0 mm 1 mps 735 mmHg 82%
    06:00 +4°C° 0 mm 1 mps 734 mmHg 83%
    07:00 +3°C° 0 mm 1 mps 734 mmHg 84%
    08:00 +4°C° 0 mm 1 mps 734 mmHg 84%
    09:00 +5°C° 0 mm 1 mps 734 mmHg 83%
    10:00 +5°C° 0 mm 1 mps 734 mmHg 82%
    11:00 +5°C° 0 mm 2 mps 734 mmHg 82%
    12:00 +6°C° 0 mm 2 mps 733 mmHg 81%
    13:00 +6°C° 0 mm 2 mps 732 mmHg 80%
    14:00 +5°C° 0 mm 2 mps 732 mmHg 84%
    15:00 +5°C° 0 mm 2 mps 732 mmHg 88%
    16:00 +4°C° 0 mm 2 mps 732 mmHg 92%
    17:00 +4°C° 0 mm 1 mps 732 mmHg 92%
    18:00 +4°C° 0 mm 1 mps 732 mmHg 92%
    19:00 +4°C° 0 mm 1 mps 732 mmHg 92%
    20:00 +3°C° 0 mm 1 mps 732 mmHg 92%
    21:00 +3°C° 0 mm 1 mps 732 mmHg 92%
    22:00 +3°C° 0 mm 1 mps 732 mmHg 92%
    23:00 +3°C° 0 mm 1 mps 732 mmHg 92%

    17 December, Tuesday

    Time Temperature Precipitation Wind Pressure Humidity
    00:00 +3°C° 0 mm 1 mps 732 mmHg 91%
    01:00 +3°C° 0 mm 1 mps 731 mmHg 91%
    02:00 +3°C° 0 mm 1 mps 732 mmHg 91%
    03:00 +3°C° 0 mm 1 mps 732 mmHg 90%
    04:00 +3°C° 0 mm 1 mps 732 mmHg 90%
    05:00 +4°C° 0 mm 1 mps 732 mmHg 90%
    06:00 +4°C° 0 mm 1 mps 732 mmHg 89%
    07:00 +4°C° 0 mm 1 mps 732 mmHg 89%
    08:00 +5°C° 0 mm 1 mps 732 mmHg 87%
    09:00 +5°C° 0 mm 1 mps 732 mmHg 85%
    10:00 +6°C° 0 mm 1 mps 732 mmHg 84%
    11:00 +7°C° 0 mm 1 mps 732 mmHg 83%
    12:00 +7°C° 0 mm 1 mps 732 mmHg 82%
    13:00 +8°C° 0 mm 1 mps 732 mmHg 82%
    14:00 +7°C° 0 mm 1 mps 732 mmHg 84%
    15:00 +5°C° 0 mm 0 mps 732 mmHg 85%
    16:00 +5°C° 0 mm 0 mps 733 mmHg 87%
    17:00 +5°C° 0 mm 0 mps 733 mmHg 87%
    18:00 +4°C° 0 mm 0 mps 734 mmHg 87%
    19:00 +4°C° 0 mm 0 mps 734 mmHg 87%
    20:00 +4°C° 0 mm 0 mps 735 mmHg 88%
    21:00 +4°C° 0 mm 0 mps 735 mmHg 88%
    22:00 +4°C° 0 mm 0 mps 736 mmHg 88%
    23:00 +4°C° 0 mm 0 mps 737 mmHg 88%
    Show more